Latest Weather Observations for Noarlunga

IDS60801

Issued at 11:35 pm CST Tuesday 23 September 2014 (issued every 30 minutes, with the page automatically refreshed every 10 minutes)

About weather observations | Map of weather stations | Latest weather observations for SA | Other Formats
Station Details ID: 023885 Name: NOARLUNGA Lat: -35.16 Lon: 138.51 Height: 55.0 m
Data from the previous 72 hours. | See also: Recent months at Noarlunga
Date/Time
CST
Temp
°C
App
Temp
°C
Dew
Point
Rel
Hum
%
Delta-T
°C
Wind Press
QNH
hPa
Press
MSL
hPa
Rain
since 9 am
mm
Dir
 
Spd
km/h
Gust
km/h
Spd
kts
Gust
kts
23/11:30pm 17.8 15.7 9.9 60 4.2 ENE 11 15 6 8 - - 0.0
23/11:00pm 17.4 15.9 10.5 64 3.7 ENE 9 13 5 7 - - 0.0
23/10:30pm 16.9 15.5 11.0 68 3.2 E 9 11 5 6 - - 0.0
23/10:00pm 18.3 16.7 10.2 59 4.3 ENE 9 17 5 9 - - 0.0
23/09:30pm 17.4 17.2 10.5 64 3.7 ESE 2 6 1 3 - - 0.0
23/09:00pm 17.5 16.0 10.4 63 3.8 ESE 9 11 5 6 - - 0.0
23/08:30pm 18.5 17.7 11.1 62 4.0 ENE 6 9 3 5 - - 0.0
23/08:00pm 19.8 18.1 8.2 47 6.0 NNW 7 13 4 7 - - 0.0
23/07:30pm 19.8 17.1 7.5 45 6.3 ENE 11 22 6 12 - - 0.0
23/07:00pm 19.2 16.2 7.9 48 5.8 E 13 19 7 10 - - 0.0
23/06:30pm 19.5 16.2 8.2 48 5.9 E 15 26 8 14 - - 0.0
23/06:00pm 22.4 17.3 7.8 39 7.6 ENE 24 35 13 19 - - 0.0
23/05:30pm 23.9 22.5 7.1 34 8.8 W 4 9 2 5 - - 0.0
23/05:00pm 24.2 22.2 6.9 33 9.0 WNW 7 22 4 12 - - 0.0
23/04:30pm 25.2 23.2 6.9 31 9.6 W 7 9 4 5 - - 0.0
23/04:00pm 24.1 22.3 8.1 36 8.5 W 7 11 4 6 - - 0.0
23/03:30pm 24.6 23.1 9.3 38 8.3 WNW 7 11 4 6 - - 0.0
23/03:00pm 24.4 21.1 8.0 35 8.7 NW 15 28 8 15 - - 0.0
23/02:30pm 25.5 20.8 5.1 27 10.4 N 19 32 10 17 - - 0.0
23/02:00pm 25.4 20.6 5.6 28 10.1 N 20 37 11 20 - - 0.0
23/01:30pm 25.2 20.6 6.4 30 9.8 NNE 20 37 11 20 - - 0.0
23/01:00pm 25.3 20.3 6.5 30 9.8 NNE 22 46 12 25 - - 0.0
23/12:30pm 24.9 18.8 6.6 31 9.5 NNE 28 41 15 22 - - 0.0
23/12:00pm 25.1 19.5 7.3 32 9.4 N 26 41 14 22 - - 0.0
23/11:30am 24.7 19.8 6.9 32 9.3 N 22 33 12 18 - - 0.0
23/11:00am 24.2 18.9 6.9 33 9.0 NNE 24 37 13 20 - - 0.0
23/10:30am 22.8 19.8 7.8 38 7.9 NNW 13 20 7 11 - - 0.0
23/10:00am 21.9 17.5 7.3 39 7.6 N 20 32 11 17 - - 0.0
23/09:30am 21.6 17.2 7.4 40 7.3 N 20 30 11 16 - - 0.0
23/09:00am 21.2 16.9 7.1 40 7.2 NNE 19 30 10 16 - - 0.0
23/08:30am 20.7 15.8 7.0 41 7.0 NNE 22 32 12 17 - - 0.0
23/08:00am 20.5 16.2 7.2 42 6.8 NE 19 33 10 18 - - 0.0
23/07:30am 19.9 16.3 6.6 42 6.7 NNE 15 22 8 12 - - 0.0
23/07:00am 18.6 16.3 5.5 42 6.4 NE 7 17 4 9 - - 0.0
23/06:30am 17.4 14.9 4.0 41 6.3 NNE 6 9 3 5 - - 0.0
23/06:00am 17.6 14.5 3.5 39 6.6 NE 9 13 5 7 - - 0.0
23/05:30am 17.9 14.2 2.2 35 7.1 ENE 11 17 6 9 - - 0.0
23/05:00am 18.2 13.9 0.8 31 7.7 NE 13 19 7 10 - - 0.0
23/04:30am 18.7 14.3 0.3 29 8.1 NE 13 19 7 10 - - 0.0
23/04:00am 19.3 14.3 -1.2 25 8.8 NE 15 22 8 12 - - 0.0
23/03:30am 19.1 14.3 -2.5 23 9.0 NE 13 19 7 10 - - 0.0
23/03:00am 19.6 14.8 -2.7 22 9.3 NE 13 19 7 10 - - 0.0
23/02:30am 20.1 14.9 -2.9 21 9.6 NE 15 19 8 10 - - 0.0
23/02:00am 20.2 14.9 -3.4 20 9.8 NE 15 20 8 11 - - 0.0
23/01:30am 20.4 15.5 -3.3 20 9.9 NE 13 20 7 11 - - 0.0
23/01:00am 20.6 15.4 -3.1 20 9.9 NE 15 20 8 11 - - 0.0
23/12:30am 20.8 15.5 -3.6 19 10.1 NE 15 24 8 13 - - 0.0
23/12:00am 20.6 15.2 -4.5 18 10.2 NE 15 20 8 11 - - 0.0
 
Date/Time
CST
Temp
°C
App
Temp
°C
Dew
Point
Rel
Hum
%
Delta-T
°C
Wind Press
QNH
hPa
Press
MSL
hPa
Rain
since 9 am
mm
Dir
 
Spd
km/h
Gust
km/h
Spd
kts
Gust
kts
22/11:30pm 19.8 14.3 -5.2 18 9.9 ENE 15 20 8 11 - - 0.0
22/11:00pm 20.8 14.9 -5.9 16 10.6 ENE 17 24 9 13 - - 0.0
22/10:30pm 20.8 14.5 -5.9 16 10.6 E 19 30 10 16 - - 0.0
22/10:00pm 20.5 14.2 -6.1 16 10.5 E 19 30 10 16 - - 0.0
22/09:30pm 20.7 14.8 -5.2 17 10.4 E 17 26 9 14 - - 0.0
22/09:00pm 18.9 14.0 -3.3 22 9.1 E 13 19 7 10 - - 0.0
22/08:30pm 18.4 12.6 -1.4 26 8.4 E 19 24 10 13 - - 0.0
22/08:00pm 18.7 14.1 -1.2 26 8.5 E 13 17 7 9 - - 0.0
22/07:30pm 18.8 14.4 0.4 29 8.1 E 13 19 7 10 - - 0.0
22/07:00pm 19.1 15.2 1.1 30 8.1 E 11 13 6 7 - - 0.0
22/06:30pm 19.9 16.3 0.9 28 8.6 ESE 9 13 5 7 - - 0.0
22/06:00pm 21.1 17.8 0.3 25 9.3 SE 7 13 4 7 - - 0.0
22/05:30pm 22.6 19.3 -0.2 22 10.3 S 7 9 4 5 - - 0.0
22/05:00pm 23.2 19.8 -1.7 19 11.0 S 6 9 3 5 - - 0.0
22/04:30pm 23.2 19.5 -3.2 17 11.3 SSW 7 9 4 5 - - 0.0
22/04:00pm 23.2 19.6 -2.4 18 11.1 WSW 7 11 4 6 - - 0.0
22/03:30pm 24.0 20.6 -1.8 18 11.4 W 6 9 3 5 - - 0.0
22/03:00pm 23.5 19.6 -1.4 19 11.0 W 9 11 5 6 - - 0.0
22/02:30pm 22.9 19.6 2.4 26 9.7 W 9 15 5 8 - - 0.0
22/02:00pm 22.9 18.8 2.4 26 9.7 W 13 17 7 9 - - 0.0
22/01:30pm 24.5 19.6 -0.6 19 11.4 NW 15 22 8 12 - - 0.0
22/01:00pm 24.4 19.1 -3.9 15 12.1 NNW 15 20 8 11 - - 0.0
22/12:30pm 24.3 19.0 -4.0 15 12.0 N 15 24 8 13 - - 0.0
22/12:00pm 23.4 17.1 -3.8 16 11.5 NNW 20 30 11 16 - - 0.0
22/11:30am 23.5 17.1 -4.6 15 11.7 NNW 20 28 11 15 - - 0.0
22/11:00am 23.6 17.2 -5.4 14 11.9 N 20 32 11 17 - - 0.0
22/10:30am 23.0 17.2 -5.0 15 11.5 N 17 26 9 14 - - 0.0
22/10:00am 21.8 15.4 -5.1 16 10.9 N 20 32 11 17 - - 0.0
22/09:30am 21.3 14.7 -3.2 19 10.3 NNE 22 32 12 17 - - 0.0
22/09:00am 20.7 14.5 -3.0 20 9.9 NNE 20 37 11 20 - - 0.0
22/08:30am 20.0 13.9 -2.3 22 9.4 NNE 20 33 11 18 - - 0.0
22/08:00am 19.2 13.4 -1.3 25 8.8 NNE 19 28 10 15 - - 0.0
22/07:30am 17.6 12.2 -1.6 27 8.0 NNE 17 24 9 13 - - 0.0
22/07:00am 16.6 11.1 -2.0 28 7.7 NNE 17 22 9 12 - - 0.0
22/06:30am 15.9 10.4 -2.1 29 7.3 NNE 17 22 9 12 - - 0.0
22/06:00am 15.2 10.0 -2.7 29 7.2 NE 15 20 8 11 - - 0.0
22/05:30am 15.2 10.4 -2.7 29 7.2 NE 13 19 7 10 - - 0.0
22/05:00am 15.6 10.8 -2.3 29 7.3 NE 13 19 7 10 - - 0.0
22/04:30am 14.5 9.8 -2.0 32 6.7 ENE 13 17 7 9 - - 0.0
22/04:00am 14.1 9.4 -1.9 33 6.4 ENE 13 19 7 10 - - 0.0
22/03:30am 11.8 7.7 0.0 44 4.8 E 11 15 6 8 - - 0.0
22/03:00am 11.7 7.4 0.8 47 4.5 E 13 17 7 9 - - 0.0
22/02:30am 13.7 8.9 0.0 39 5.7 E 15 20 8 11 - - 0.0
22/02:00am 14.3 9.2 0.9 40 5.7 ENE 17 22 9 12 - - 0.0
22/01:30am 13.9 10.0 1.2 42 5.5 ENE 11 17 6 9 - - 0.0
22/01:00am 14.8 10.5 1.3 40 5.9 ENE 13 22 7 12 - - 0.0
22/12:30am 14.1 10.0 2.4 45 5.2 E 13 17 7 9 - - 0.0
22/12:00am 15.2 11.1 2.1 41 5.8 E 13 20 7 11 - - 0.0
 
Date/Time
CST
Temp
°C
App
Temp
°C
Dew
Point
Rel
Hum
%
Delta-T
°C
Wind Press
QNH
hPa
Press
MSL
hPa
Rain
since 9 am
mm
Dir
 
Spd
km/h
Gust
km/h
Spd
kts
Gust
kts
21/11:30pm 14.7 11.5 3.2 46 5.2 NE 9 17 5 9 - - 0.0
21/11:00pm 15.1 11.2 3.3 45 5.4 E 13 24 7 13 - - 0.0
21/10:30pm 15.0 10.8 3.8 47 5.1 E 15 24 8 13 - - 0.0
21/10:00pm 15.2 10.5 3.4 45 5.4 E 17 22 9 12 - - 0.0
21/09:30pm 14.8 10.1 3.0 45 5.3 E 17 26 9 14 - - 0.0
21/09:00pm 14.5 10.1 2.7 45 5.3 E 15 22 8 12 - - 0.0
21/08:30pm 14.8 10.8 2.7 44 5.4 E 13 20 7 11 - - 0.0
21/08:00pm 14.5 11.0 3.6 48 5.0 E 11 17 6 9 - - 0.0
21/07:30pm 14.7 12.2 3.8 48 5.0 E 6 11 3 6 - - 0.0
21/07:00pm 14.9 13.0 2.8 44 5.4 ESE 2 4 1 2 - - 0.0
21/06:30pm 15.8 14.4 3.3 43 5.7 CALM 0 2 0 1 - - 0.0
21/06:00pm 17.3 14.8 3.6 40 6.4 SW 6 7 3 4 - - 0.0
21/05:30pm 18.4 16.1 4.6 40 6.6 SW 6 9 3 5 - - 0.0
21/05:00pm 18.5 15.6 4.7 40 6.6 SSW 9 15 5 8 - - 0.0
21/04:30pm 19.1 16.1 4.1 37 7.2 SW 9 15 5 8 - - 0.0
21/04:00pm 19.1 15.7 5.9 42 6.5 SW 13 19 7 10 - - 0.0
21/03:30pm 20.4 17.4 4.0 34 7.9 WSW 9 15 5 8 - - 0.0
21/03:00pm 20.9 17.3 2.7 30 8.6 WSW 11 17 6 9 - - 0.0
21/02:30pm 21.5 18.2 2.7 29 8.9 WNW 9 15 5 8 - - 0.0
21/02:00pm 21.4 18.7 2.6 29 8.9 W 6 11 3 6 - - 0.0
21/01:30pm 20.8 17.6 3.1 31 8.4 WSW 9 13 5 7 - - 0.0
21/01:00pm 20.6 18.1 3.8 33 8.1 WNW 6 9 3 5 - - 0.0
21/12:30pm 20.2 17.1 3.4 33 8.0 WNW 9 13 5 7 - - 0.0
21/12:00pm 19.5 15.7 1.9 31 8.1 W 11 15 6 8 - - 0.0
21/11:30am 19.5 15.9 2.8 33 7.8 W 11 17 6 9 - - 0.0
21/11:00am 19.0 16.1 2.8 34 7.5 WNW 7 11 4 6 - - 0.0
21/10:30am 18.8 15.4 1.8 32 7.7 WNW 9 13 5 7 - - 0.0
21/10:00am 19.2 16.5 2.6 33 7.7 NNE 6 13 3 7 - - 0.0
21/09:30am 18.4 16.0 1.9 33 7.5 NE 4 6 2 3 - - 0.0
21/09:00am 17.6 15.1 1.6 34 7.2 NE 4 6 2 3 - - 0.0
21/08:30am 17.3 14.8 1.7 35 7.0 NE 4 7 2 4 - - 0.0
21/08:00am 15.7 13.0 2.8 42 5.8 NE 6 9 3 5 - - 0.0
21/07:30am 14.2 12.3 3.1 47 5.0 ENE 2 4 1 2 - - 0.0
21/07:00am 12.4 9.6 2.3 50 4.4 ENE 6 9 3 5 - - 0.0
21/06:30am 11.1 8.1 1.9 53 3.9 ENE 7 13 4 7 - - 0.0
21/06:00am 11.0 8.5 1.5 52 4.0 NNE 4 7 2 4 - - 0.0
21/05:30am 11.5 8.5 1.7 51 4.2 N 7 9 4 5 - - 0.0
21/05:00am 12.6 9.2 1.6 47 4.7 ENE 9 20 5 11 - - 0.0
21/04:30am 13.0 8.0 1.4 45 5.0 ENE 17 26 9 14 - - 0.0
21/04:00am 13.1 7.8 1.8 46 4.9 ENE 19 26 10 14 - - 0.0
21/03:30am 13.2 7.7 2.1 47 4.8 ENE 20 30 11 16 - - 0.0
21/03:00am 13.1 7.8 2.1 47 4.8 ENE 19 26 10 14 - - 0.0
21/02:30am 13.5 7.3 2.4 47 4.9 E 24 37 13 20 - - 0.0
21/02:00am 13.3 7.1 2.2 47 4.9 E 24 35 13 19 - - 0.0
21/01:30am 13.4 7.3 2.6 48 4.8 E 24 35 13 19 - - 0.0
21/01:00am 13.4 7.4 3.2 50 4.6 E 24 48 13 26 - - 0.0
21/12:30am 13.4 7.9 3.8 52 4.4 E 22 33 12 18 - - 0.0
21/12:00am 13.6 7.3 3.9 52 4.4 E 26 41 14 22 - - 0.0

Other Formats:

Comma delimited format used in spreadsheet applications
http://www.bom.gov.au/fwo/IDS60801/IDS60801.94808.axf

JavaScript Object Notation format (JSON) in row-major order
http://www.bom.gov.au/fwo/IDS60801/IDS60801.94808.json